Location: Newark
(13.8625°N, 100.5144°E)
Time: 02:33:07
(UTC+00:00)

NOAA 15 - Visible Passes

Search period start: 05 August 2021 00:00
Search period end: 15 August 2021 00:00
Orbit: 797 x 813 km, 98.7° (Epoch: 04 August)

Date Brightness Start Highest point End Pass type
(mag) Time Alt. Az. Time Alt. Az. Time Alt. Az.
05 Aug 6.4 13:12:45 10° SSW 13:17:15 28° W 13:21:45 10° NW visible
06 Aug 5.2 12:46:54 10° S 12:52:05 56° WSW 12:57:16 10° NNW visible
07 Aug 4.6 12:21:41 10° SSE 12:26:57 74° ENE 12:32:13 10° N visible
08 Aug 7.3 13:38:37 10° SW 13:41:29 15° W 13:44:22 10° WNW visible
09 Aug 6.4 13:11:46 10° SSW 13:16:18 29° W 13:20:49 10° NW visible
10 Aug 5.2 12:45:56 10° S 12:51:08 58° WSW 12:56:18 10° NNW visible
11 Aug 4.6 12:20:44 10° SSE 12:26:00 72° ENE 12:31:14 10° N visible
12 Aug 5.2 11:56:07 10° SE 12:00:55 36° ENE 12:05:41 10° N visible
12 Aug 7.3 13:37:33 10° SW 13:40:31 15° W 13:43:30 10° WNW visible
13 Aug 6.4 13:10:45 10° SSW 13:15:20 30° W 13:19:54 10° NW visible
14 Aug 5.1 12:44:58 10° S 12:50:10 60° WSW 12:55:21 10° NNW visible
